Tracking 32418 objects as of 9-Dec-2025
HD Live streaming from Space Station
objects crossing your sky now

STARLINK-34600

Track STARLINK-34600 now!
10-day predictions
STARLINK-34600 is classified as:


NORAD ID: 64699
Int'l Code: 2025-142D
Perigee: 585.8 km
Apogee: 587.7 km
Inclination: 70.0 °
Period: 96.3 minutes
Semi major axis: 6957 km
RCS: Unknown
Launch date: June 28, 2025
Source: United States (US)
Launch site: AIR FORCE WESTERN TEST RANGE (AFWTR)
Your satellite tracking list
Your tracking list is empty




NASA's NSSDC Master Catalog

Two Line Element Set (TLE):
1 64699U 25142D   25343.54840496  .00006195  00000-0  56028-3 0  9990
2 64699  70.0013 181.1099 0001379 290.0514  70.0495 14.95901812 25997
Source of the keplerian elements: AFSPC